Flag for U.S.A. Weather past 2 weeks in Seattle, Washington, U.S.A.

66 °F


Feels Like: 66 °F
Forecast: 56 / 65 °F
Wind: 9 mph from Southeast

Location: Seattle Boeing Field

Current Time: Oct 10, 2015 at 12:31:24 AM

Latest Report: Oct 9, 2015 at 11:53 PM

Visibility: 10 mi

Pressure: 29.91 "Hg

Humidity: 78%

Dew point: 59 °F

Location of SeattleLocation

Historic Weather in Seattle — Graph


Seattle temperature yesterday

Maximum temperature yesterday: 70 °F (at 4:53 PM)
Minimum temperature yesterday: 55 °F (at 6:53 AM)
Average temperature yesterday: 64 °F

Past Weeks' High & Low Weather Summary

High72 °F (Sep 29, 3:53 PM)90% (Oct 1, 8:53 AM)30.21 "Hg (Oct 1, 8:53 AM)
Low47 °F (Sep 27, 6:53 AM)38% (Oct 4, 12:53 PM)29.85 "Hg (Oct 5, 4:53 PM)
Average61 °F68%30.03 "Hg
* Reported Sep 24 10:53 PM — Oct 9 10:53 PM, Seattle, Weather by CustomWeather, © 2015

Note: Actual official high and low records may vary slightly from our data, if they occured in-between our weather recording intervals... More about our weather records


Seattle weather history for previous 24 hours

Time TempWeatherWind HumidityBarometerVisibility
10:53 PM
Fri, Oct 9
65 °FPassing clouds.7 mph78%29.92 "Hg10 mi
9:53 PM64 °FPassing clouds.3 mph78%29.93 "Hg10 mi
8:53 PM67 °FPassing clouds.3 mph71%29.94 "Hg10 mi
7:53 PM68 °FMostly cloudy.3 mph68%29.94 "Hg10 mi
6:53 PM67 °FMostly cloudy.5 mph73%29.94 "Hg10 mi
5:53 PM68 °FMostly cloudy.5 mph68%29.96 "Hg9 mi
4:53 PM70 °FOvercast.5 mph66%29.95 "Hg10 mi
3:53 PM69 °FOvercast.7 mph68%29.95 "Hg10 mi
2:53 PM68 °FLight rain. Overcast.3 mph70%29.96 "Hg6 mi
1:53 PM69 °FOvercast.6 mph63%29.95 "Hg10 mi
12:53 PM68 °FOvercast.3 mph68%29.95 "Hg10 mi
11:53 AM68 °FMostly cloudy.3 mph65%29.96 "Hg10 mi
10:53 AM67 °FOvercast.No wind66%29.94 "Hg10 mi
9:53 AM65 °FLight rain. More clouds than sun.3 mph70%29.95 "Hg10 mi
8:53 AM62 °FOvercast.5 mph67%29.92 "Hg10 mi
7:53 AM57 °FPassing clouds.6 mph81%29.90 "Hg10 mi
6:53 AM55 °FPassing clouds.5 mph83%29.90 "Hg10 mi
5:53 AM58 °FClear.5 mph84%29.91 "Hg10 mi
4:53 AM57 °FPassing clouds.9 mph87%29.93 "Hg10 mi
4:01 AM57 °FFog.7 mph88%29.94 "Hg1 mi
3:01 AM57 °FFog.6 mph88%29.96 "Hg1 mi
1:53 AM59 °FFog.No wind87%29.95 "Hg4 mi
12:53 AM60 °FFog.No wind86%29.96 "Hg4 mi
Weather by CustomWeather, © 2015

See weather overviewHow to use our weather pages